Regional Weather Roundup
Issued by NWS State College, PA

Home | Current Version | Previous Version | Text Only | Print | Product List | Glossary On
Versions: 1 2 3 4 5 6 7 8 9 10 11 12 13 14 15 16 17 18 19 20 21 22 23 24 25 26 27 28 29 30 31 32 33 34 35 36 37 38 39 40 41 42 43 44 45 46 47 48 49 50
000
ASUS41 KCTP 021110
RWRCTP

REGIONAL WEATHER ROUNDUP
NATIONAL WEATHER SERVICE STATE COLLEGE PA
600 AM EST MON MAR 02 2015

Note: "fair" indicates few or no clouds below 12,000 feet with no
significant weather and/or obstructions to visibility.

* = STATION THAT DOES NOT REPORT PRECIPITATION /E.G. RAIN...SNOW...ETC/
    THUNDER OR FOG.

PAZ002>004-007>009-013>016-020>023-029>032-021200-
WESTERN PENNSYLVANIA

CITY           SKY/WX    TMP DP  RH WIND       PRES   REMARKS
ERIE           CLOUDY    21  15  78 W14G23    30.26R WCI   8
MEADVILLE      LGT SNOW  19  15  84 W12       30.22R WCI   7
FRANKLIN*      CLOUDY    19  14  79 W15G21    30.23R WCI   5
NEW CASTLE     FLURRIES  20  16  84 W7        30.30R WCI  11
BEAVER COUNTY  NOT AVBL
BUTLER*        CLOUDY    21  18  86 NW6       30.27R WCI  14
PITTSBURGH INT LGT SNOW  24  19  81 NW18      30.27R FOG     WCI  10
PITTSBURGH     CLOUDY    25  18  74 NW13G20   30.25R HAZE    WCI  14
INDIANA*       CLOUDY    27  25  93 NW13G18   30.24R FOG
LATROBE        CLOUDY    28  25  86 W13G18    30.27R
WASHINGTON CO* CLOUDY    27  21  80 NW10G16   30.29R
$$

PAZ004>006-010>012-017>019-024>028-033>037-041-042-045-046-049>053-021200-
CENTRAL PENNSYLVANIA

CITY           SKY/WX    TMP DP  RH WIND       PRES   REMARKS
BRADFORD       LGT SNOW  18  13  80 W12       30.09R WCI   5
DUBOIS         LGT SNOW  20  16  84 W14       30.15R FOG     WCI   7
CLEARFIELD     MIX PCPN  24  18  77 W17G25    30.14R WCI  11
JOHNSTOWN      CLOUDY    25  23  92 W12G20    30.12R FOG     WCI  14
ALTOONA        LGT SNOW  31  24  75 NW16G23   30.11R
STATE COLLEGE  LGT SNOW  30  23  74 NW21G35   30.08R
WILLIAMSPORT   CLOUDY    25  21  85 W5        30.10R FOG
SELINSGROVE    CLOUDY    27  24  89 CALM      30.10R FOG
FT INDIANTOWN  CLOUDY    26  24  94 SW5       30.10R FOG
CAPITAL CITY   CLOUDY    28  26  92 W3        30.11R FOG
HARRISBURG     CLOUDY    28  25  88 CALM      30.11R FOG
YORK           CLOUDY    30  28  92 NW5       30.11R FOG
$$

PAZ038>040-043-044-047-048-054-055-060>062-067>071-021200-
EASTERN PENNSYLVANIA

CITY           SKY/WX    TMP DP  RH WIND       PRES   REMARKS
SCRANTON       LGT SNOW  26  23  88 SW6       30.04R
MOUNT POCONO   CLOUDY    26  23  88 W9        29.94S FOG
ALLENTOWN      CLOUDY    27  23  85 SW7       30.06R FOG
QUAKERTOWN*    CLOUDY    28  27  93 CALM      30.06R
READING        CLOUDY    26  24  92 CALM      30.09R FOG
LANCASTER      CLOUDY    29  27  92 W6        30.09R FOG
COATESVILLE    CLOUDY    32  32 100 NW9       30.08R FOG
POTTSTOWN      CLOUDY    28  28 100 W5        30.09R FOG
BLUE BELL      CLOUDY    32  30  93 W3        30.07R
DOYLESTOWN     CLOUDY    30  28  92 VRB5      30.04R
WILLOW GROVE   NOT AVBL
NORTH PHILA    CLOUDY    33  28  81 W7        30.09R HAZE
PHILADELPHIA   CLOUDY    32  30  92 W8        30.10R FOG
$$


USA.gov is the U.S. government's official web portal to all federal, state and local government web resources and services.